DAL2134 PHNL-KPDX

Flight info

Callsign DAL2134
Flight time 5h 13m
Altitude 39000
Route MKK5 APACK R463 AUNTI A332 HEMLO ONP LARSN UBG
Aircraft A321/M-SDE3FGHIRWY/LB1

Departure

Time 2026-05-04 18:57
Airport Daniel K. Inouye International Airport (PHNL)

Arrival

Time 2026-05-05 00:10
Airport Portland International Airport (KPDX)
Time Latitude Longitude Altitude Speed Heading
2026-05-04 18:38 21.32901 -157.92340 11 ft 0 kts 321°
2026-05-04 18:45 21.32899 -157.92338 11 ft 3 kts 321°
2026-05-04 18:45 21.32878 -157.92320 11 ft 4 kts 320°
2026-05-04 18:46 21.32859 -157.92303 12 ft 2 kts 315°
2026-05-04 18:46 21.32843 -157.92286 11 ft 4 kts 315°
2026-05-04 18:46 21.32823 -157.92265 12 ft 4 kts 320°
2026-05-04 18:46 21.32802 -157.92251 12 ft 4 kts 350°
2026-05-04 18:47 21.32789 -157.92250 12 ft 1 kts
2026-05-04 18:47 21.32788 -157.92250 14 ft 0 kts
2026-05-04 18:50 21.32789 -157.92250 14 ft 1 kts
2026-05-04 18:50 21.32790 -157.92244 13 ft 0 kts 65°
2026-05-04 18:50 21.32789 -157.92241 13 ft 2 kts 91°
2026-05-04 18:50 21.32743 -157.92246 13 ft 11 kts 191°
2026-05-04 18:51 21.32668 -157.92256 14 ft 14 kts 183°
2026-05-04 18:51 21.32550 -157.92248 15 ft 18 kts 150°
2026-05-04 18:51 21.32449 -157.92189 17 ft 16 kts 150°
2026-05-04 18:51 21.32356 -157.92131 18 ft 15 kts 150°
2026-05-04 18:52 21.32259 -157.92071 17 ft 17 kts 150°
2026-05-04 18:52 21.32152 -157.92004 16 ft 18 kts 150°
2026-05-04 18:52 21.32041 -157.91938 14 ft 19 kts 151°
2026-05-04 18:52 21.31918 -157.91864 11 ft 21 kts 150°
2026-05-04 18:53 21.31797 -157.91856 14 ft 18 kts 223°
2026-05-04 18:53 21.31720 -157.91957 12 ft 17 kts 232°
2026-05-04 18:53 21.31648 -157.92058 10 ft 18 kts 233°
2026-05-04 18:53 21.31572 -157.92166 8 ft 19 kts 233°
2026-05-04 18:54 21.31492 -157.92283 10 ft 20 kts 233°
2026-05-04 18:54 21.31404 -157.92412 8 ft 22 kts 234°
2026-05-04 18:54 21.31314 -157.92542 10 ft 20 kts 234°
2026-05-04 18:54 21.31318 -157.92637 12 ft 8 kts 317°
2026-05-04 18:55 21.31324 -157.92642 13 ft 0 kts 318°
2026-05-04 18:55 21.31353 -157.92667 13 ft 9 kts 323°
2026-05-04 18:56 21.31401 -157.92691 14 ft 6 kts 11°
2026-05-04 18:56 21.31425 -157.92670 13 ft 0 kts 48°
2026-05-04 18:56 21.31468 -157.92614 11 ft 39 kts 52°
2026-05-04 18:56 21.31776 -157.92177 10 ft 104 kts 52°
2026-05-04 18:57 21.32318 -157.91411 6 ft 152 kts 52°
2026-05-04 18:57 21.33024 -157.90420 164 ft 175 kts 52°
2026-05-04 18:57 21.33553 -157.89272 814 ft 171 kts 80°
2026-05-04 18:57 21.33358 -157.88053 1608 ft 165 kts 105°
2026-05-04 18:58 21.32889 -157.86897 2072 ft 178 kts 114°
2026-05-04 18:58 21.32235 -157.85710 2504 ft 190 kts 121°
2026-05-04 18:58 21.31423 -157.84567 3054 ft 196 kts 127°
2026-05-04 18:58 21.30466 -157.83504 3653 ft 197 kts 134°
2026-05-04 18:59 21.29409 -157.82571 4251 ft 197 kts 141°
2026-05-04 18:59 21.28268 -157.81784 4859 ft 195 kts 148°
2026-05-04 18:59 21.27225 -157.80833 5151 ft 206 kts 118°
2026-05-04 18:59 21.27014 -157.79270 5287 ft 228 kts 75°
2026-05-04 19:00 21.27864 -157.77773 5504 ft 252 kts 46°
2026-05-04 19:00 21.29202 -157.76435 5886 ft 270 kts 44°
2026-05-04 19:00 21.30615 -157.75045 6529 ft 277 kts 44°
2026-05-04 19:00 21.32025 -157.73658 7224 ft 281 kts 44°
2026-05-04 19:01 21.33491 -157.72217 7914 ft 284 kts 44°
2026-05-04 19:01 21.34886 -157.70730 8554 ft 289 kts 42°
2026-05-04 19:01 21.36639 -157.69637 9170 ft 296 kts 26°
2026-05-04 19:01 21.38521 -157.68726 9818 ft 299 kts 25°
2026-05-04 19:02 21.39807 -157.68100 10221 ft 303 kts 25°
2026-05-04 19:02 21.42461 -157.66792 10414 ft 331 kts 25°
2026-05-04 19:02 21.44606 -157.65721 10545 ft 350 kts 25°
2026-05-04 19:02 21.46855 -157.64593 10667 ft 369 kts 25°
2026-05-04 19:03 21.49230 -157.63395 10977 ft 380 kts 26°
2026-05-04 19:03 21.50823 -157.62589 11315 ft 383 kts 25°
2026-05-04 19:03 21.53261 -157.61355 11882 ft 387 kts 25°
2026-05-04 19:03 21.55711 -157.60117 12434 ft 390 kts 25°
2026-05-04 19:04 21.58179 -157.58871 12976 ft 393 kts 25°
2026-05-04 19:04 21.60660 -157.57616 13516 ft 395 kts 25°
2026-05-04 19:04 21.63158 -157.56351 14047 ft 398 kts 25°
2026-05-04 19:04 21.65667 -157.55081 14563 ft 400 kts 24°
2026-05-04 19:05 21.68194 -157.53799 15055 ft 403 kts 24°
2026-05-04 19:05 21.70735 -157.52511 15539 ft 405 kts 24°
2026-05-04 19:05 21.73295 -157.51215 16016 ft 408 kts 24°
2026-05-04 19:05 21.75874 -157.49913 16485 ft 410 kts 24°
2026-05-04 19:06 21.78462 -157.48604 16927 ft 412 kts 24°
2026-05-04 19:06 21.81069 -157.47285 17367 ft 415 kts 24°
2026-05-04 19:06 21.83695 -157.45955 17794 ft 417 kts 24°
2026-05-04 19:06 21.86325 -157.44619 18225 ft 420 kts 24°
2026-05-04 19:07 21.88962 -157.43279 18641 ft 422 kts 24°
2026-05-04 19:07 21.91612 -157.41934 19032 ft 424 kts 24°
2026-05-04 19:07 21.94265 -157.40588 19420 ft 427 kts 24°
2026-05-04 19:07 21.97013 -157.39190 19801 ft 429 kts 24°
2026-05-04 19:08 21.99722 -157.37809 20163 ft 432 kts 24°
2026-05-04 19:08 22.02407 -157.36440 20516 ft 434 kts 24°
2026-05-04 19:08 22.05179 -157.35026 20865 ft 437 kts 23°
2026-05-04 19:08 22.07901 -157.33638 21209 ft 439 kts 23°
2026-05-04 19:09 22.10713 -157.32208 21566 ft 442 kts 23°
2026-05-04 19:09 22.13505 -157.30791 21912 ft 444 kts 23°
2026-05-04 19:09 22.16266 -157.29388 22246 ft 446 kts 23°
2026-05-04 19:09 22.19084 -157.27953 22572 ft 449 kts 23°
2026-05-04 19:10 22.21894 -157.26518 22882 ft 451 kts 23°
2026-05-04 19:10 22.24760 -157.25052 23206 ft 453 kts 23°
2026-05-04 19:10 22.27619 -157.23590 23514 ft 455 kts 23°
2026-05-04 19:10 22.30490 -157.22122 23824 ft 457 kts 23°
2026-05-04 19:11 22.33374 -157.20643 24120 ft 459 kts 23°
2026-05-04 19:11 22.36238 -157.19175 24408 ft 461 kts 23°
2026-05-04 19:11 22.39173 -157.17672 24706 ft 463 kts 23°
2026-05-04 19:11 22.42091 -157.16178 24975 ft 465 kts 23°
2026-05-04 19:12 22.45025 -157.14678 25254 ft 467 kts 23°
2026-05-04 19:12 22.50929 -157.11654 25809 ft 471 kts 22°
2026-05-04 19:12 22.53895 -157.10132 26072 ft 473 kts 22°
2026-05-04 19:13 22.56878 -157.08602 26341 ft 475 kts 22°
2026-05-04 19:13 22.59870 -157.07068 26619 ft 477 kts 22°
2026-05-04 19:13 22.62872 -157.05525 26894 ft 479 kts 22°
2026-05-04 19:13 22.65867 -157.03985 27170 ft 480 kts 22°
2026-05-04 19:14 22.68920 -157.02414 27438 ft 483 kts 22°
2026-05-04 19:14 22.71954 -157.00851 27693 ft 484 kts 22°
2026-05-04 19:14 22.75001 -156.99284 28004 ft 484 kts 22°
2026-05-04 19:14 22.78005 -156.97741 28371 ft 483 kts 22°
2026-05-04 19:15 22.81034 -156.96182 28723 ft 482 kts 22°
2026-05-04 19:15 22.84061 -156.94620 29067 ft 481 kts 22°
2026-05-04 19:15 22.87079 -156.93062 29387 ft 480 kts 22°
2026-05-04 19:15 22.90092 -156.91507 29705 ft 480 kts 22°
2026-05-04 19:16 22.93110 -156.89952 30030 ft 479 kts 22°
2026-05-04 19:16 22.96123 -156.88400 30340 ft 478 kts 22°
2026-05-04 19:16 22.99124 -156.86850 30636 ft 478 kts 22°
2026-05-04 19:16 23.02132 -156.85292 30928 ft 478 kts 21°
2026-05-04 19:17 23.05137 -156.83736 31232 ft 478 kts 21°
2026-05-04 19:17 23.08133 -156.82186 31521 ft 478 kts 21°
2026-05-04 19:17 23.11140 -156.80631 31804 ft 478 kts 21°
2026-05-04 19:17 23.14140 -156.79074 32079 ft 478 kts 21°
2026-05-04 19:18 23.17140 -156.77517 32366 ft 477 kts 21°
2026-05-04 19:18 23.20141 -156.75961 32643 ft 477 kts 21°
2026-05-04 19:18 23.23134 -156.74406 32909 ft 478 kts 21°
2026-05-04 19:18 23.26134 -156.72846 33183 ft 478 kts 21°
2026-05-04 19:19 23.29101 -156.71305 33449 ft 477 kts 21°
2026-05-04 19:19 23.32089 -156.69755 33709 ft 477 kts 21°
2026-05-04 19:19 23.35089 -156.68199 33976 ft 477 kts 21°
2026-05-04 19:19 23.38082 -156.66644 34239 ft 476 kts 21°
2026-05-04 19:20 23.41072 -156.65085 34494 ft 476 kts 21°
2026-05-04 19:20 23.44059 -156.63526 34737 ft 476 kts 21°
2026-05-04 19:20 23.47047 -156.61971 34973 ft 476 kts 20°
2026-05-04 19:20 23.50033 -156.60417 35215 ft 476 kts 20°
2026-05-04 19:21 23.53019 -156.58863 35460 ft 475 kts 20°
2026-05-04 19:21 23.55995 -156.57310 35696 ft 475 kts 20°
2026-05-04 19:21 23.58978 -156.55747 35917 ft 475 kts 20°
2026-05-04 19:21 23.61954 -156.54188 36128 ft 475 kts 20°
2026-05-04 19:22 23.64929 -156.52634 36330 ft 474 kts 20°
2026-05-04 19:22 23.67907 -156.51080 36525 ft 475 kts 20°
2026-05-04 19:22 23.70886 -156.49524 36716 ft 474 kts 20°
2026-05-04 19:22 23.73866 -156.47969 36941 ft 473 kts 20°
2026-05-04 19:23 23.76827 -156.46421 37198 ft 471 kts 20°
2026-05-04 19:23 23.79774 -156.44875 37452 ft 468 kts 20°
2026-05-04 19:23 23.82702 -156.43341 37690 ft 467 kts 20°
2026-05-04 19:23 23.85603 -156.41824 37888 ft 466 kts 20°
2026-05-04 19:24 23.88519 -156.40299 38033 ft 465 kts 20°
2026-05-04 19:24 23.91450 -156.38762 38175 ft 466 kts 20°
2026-05-04 19:24 23.94366 -156.37229 38301 ft 466 kts 20°
2026-05-04 19:24 23.97286 -156.35688 38433 ft 466 kts 20°
2026-05-04 19:25 24.00198 -156.34125 38552 ft 468 kts 24°
2026-05-04 19:25 24.02962 -156.32194 38682 ft 474 kts 33°
2026-05-04 19:25 24.05459 -156.29798 38805 ft 480 kts 42°
2026-05-04 19:25 24.07577 -156.27022 38932 ft 485 kts 51°
2026-05-04 19:26 24.09512 -156.24002 39088 ft 484 kts 51°
2026-05-04 19:26 24.13407 -156.17968 39157 ft 488 kts 50°
2026-05-04 19:27 24.17359 -156.11901 39155 ft 492 kts 51°
2026-05-04 19:27 24.21334 -156.05747 39192 ft 496 kts 51°
2026-05-04 19:28 24.25320 -155.99554 39262 ft 498 kts 51°
2026-05-04 19:28 24.29323 -155.93336 39260 ft 501 kts 51°
2026-05-04 19:29 24.33349 -155.87071 39261 ft 502 kts 51°
2026-05-04 19:29 24.37370 -155.80810 39285 ft 503 kts 51°
2026-05-04 19:30 24.41388 -155.74539 39291 ft 503 kts 51°
2026-05-04 19:30 24.45384 -155.68299 39281 ft 503 kts 51°
2026-05-04 19:31 24.49408 -155.62013 39293 ft 503 kts 51°
2026-05-04 19:31 24.53431 -155.55715 39294 ft 503 kts 51°
2026-05-04 19:32 24.57443 -155.49424 39219 ft 502 kts 51°
2026-05-04 19:32 24.61432 -155.43162 39196 ft 499 kts 51°
2026-05-04 19:33 24.65412 -155.36907 39200 ft 500 kts 51°
2026-05-04 19:33 24.69395 -155.30635 39191 ft 500 kts 51°
2026-05-04 19:34 24.73656 -155.24654 39199 ft 493 kts 40°
2026-05-04 19:34 24.78529 -155.19416 39198 ft 493 kts 40°
2026-05-04 19:35 24.83425 -155.14134 39187 ft 493 kts 40°
2026-05-04 19:35 24.88306 -155.08845 39192 ft 493 kts 40°
2026-05-04 19:36 24.93200 -155.03542 39184 ft 493 kts 40°
2026-05-04 19:36 24.98087 -154.98238 39185 ft 493 kts 40°
2026-05-04 19:37 25.02972 -154.92936 39197 ft 493 kts 40°
2026-05-04 19:37 25.07859 -154.87637 39194 ft 492 kts 40°
2026-05-04 19:38 25.12731 -154.82338 39183 ft 492 kts 40°
2026-05-04 19:38 25.17601 -154.77030 39192 ft 492 kts 40°
2026-05-04 19:39 25.22424 -154.71754 39193 ft 492 kts 40°
2026-05-04 19:39 25.27289 -154.66432 39189 ft 491 kts 40°
2026-05-04 19:40 25.32152 -154.61122 39186 ft 491 kts 40°
2026-05-04 19:40 25.37001 -154.55816 39191 ft 491 kts 40°
2026-05-04 19:41 25.41839 -154.50508 39194 ft 490 kts 41°
2026-05-04 19:41 25.46677 -154.45189 39183 ft 489 kts 40°
2026-05-04 19:42 25.51507 -154.39889 39194 ft 488 kts 40°
2026-05-04 19:42 25.56327 -154.34589 39189 ft 488 kts 41°
2026-05-04 19:43 25.61147 -154.29284 39184 ft 488 kts 41°
2026-05-04 19:43 25.65917 -154.24016 39182 ft 487 kts 41°
2026-05-04 19:44 25.70713 -154.18721 39183 ft 487 kts 41°
2026-05-04 19:44 25.75530 -154.13411 39188 ft 487 kts 41°
2026-05-04 19:45 25.80319 -154.08108 39183 ft 487 kts 41°
2026-05-04 19:45 25.85105 -154.02782 39190 ft 487 kts 41°
2026-05-04 19:46 25.89899 -153.97461 39187 ft 487 kts 41°
2026-05-04 19:46 25.94687 -153.92157 39197 ft 487 kts 41°
2026-05-04 19:47 25.99476 -153.86831 39183 ft 487 kts 41°
2026-05-04 19:47 26.04215 -153.81535 39195 ft 486 kts 41°
2026-05-04 19:48 26.08982 -153.76211 39184 ft 486 kts 41°
2026-05-04 19:48 26.13770 -153.70887 39193 ft 486 kts 41°
2026-05-04 19:49 26.18552 -153.65566 39195 ft 486 kts 41°
2026-05-04 19:49 26.23330 -153.60210 39183 ft 486 kts 41°
2026-05-04 19:50 26.28101 -153.54855 39196 ft 487 kts 41°
2026-05-04 19:50 26.32869 -153.49495 39182 ft 487 kts 41°
2026-05-04 19:51 26.37626 -153.44167 39188 ft 487 kts 41°
2026-05-04 19:51 26.42398 -153.38800 39189 ft 487 kts 41°
2026-05-04 19:52 26.47179 -153.33407 39184 ft 487 kts 41°
2026-05-04 19:52 26.51947 -153.28023 39197 ft 488 kts 41°
2026-05-04 19:53 26.55914 -153.23548 39196 ft 488 kts 41°
2026-05-04 19:53 26.60689 -153.18156 39189 ft 488 kts 41°
2026-05-04 19:54 26.65457 -153.12758 39197 ft 488 kts 41°
2026-05-04 19:54 26.70229 -153.07359 39183 ft 488 kts 41°
2026-05-04 19:55 26.74994 -153.01954 39196 ft 488 kts 41°
2026-05-04 19:55 26.79724 -152.96570 39188 ft 488 kts 41°
2026-05-04 19:56 26.84490 -152.91148 39187 ft 488 kts 41°
2026-05-04 19:56 26.89257 -152.85718 39182 ft 488 kts 41°
2026-05-04 19:57 26.94023 -152.80301 39180 ft 489 kts 41°
2026-05-04 19:57 26.98794 -152.74862 39190 ft 489 kts 42°
2026-05-04 19:58 27.03559 -152.69404 39181 ft 489 kts 42°
2026-05-04 19:58 27.08318 -152.63946 39182 ft 489 kts 42°
2026-05-04 19:59 27.13091 -152.58485 39183 ft 489 kts 42°
2026-05-04 19:59 27.17849 -152.53021 39183 ft 489 kts 42°
2026-05-04 20:00 27.22570 -152.47598 39182 ft 489 kts 42°
2026-05-04 20:00 27.27331 -152.42123 39191 ft 489 kts 42°
2026-05-04 20:01 27.32081 -152.36650 39201 ft 488 kts 42°
2026-05-04 20:01 27.36823 -152.31188 39198 ft 488 kts 42°
2026-05-04 20:02 27.41568 -152.25710 39203 ft 488 kts 42°
2026-05-04 20:02 27.46270 -152.20259 39195 ft 488 kts 42°
2026-05-04 20:03 27.51004 -152.14774 39194 ft 488 kts 42°
2026-05-04 20:03 27.55735 -152.09291 39200 ft 488 kts 42°
2026-05-04 20:04 27.60463 -152.03808 39194 ft 488 kts 42°
2026-05-04 20:04 27.65196 -151.98302 39203 ft 488 kts 42°
2026-05-04 20:05 27.69922 -151.92802 39201 ft 489 kts 42°
2026-05-04 20:05 27.74655 -151.87296 39199 ft 488 kts 42°
2026-05-04 20:06 27.79377 -151.81781 39200 ft 489 kts 42°
2026-05-04 20:06 27.84069 -151.76278 39194 ft 489 kts 42°
2026-05-04 20:07 27.88790 -151.70759 39201 ft 489 kts 42°
2026-05-04 20:07 27.93512 -151.65240 39206 ft 488 kts 42°
2026-05-04 20:08 27.98227 -151.59705 39196 ft 488 kts 42°
2026-05-04 20:08 28.02943 -151.54164 39197 ft 488 kts 42°
2026-05-04 20:09 28.07650 -151.48620 39197 ft 488 kts 42°
2026-05-04 20:09 28.12355 -151.43075 39199 ft 488 kts 42°
2026-05-04 20:10 28.17058 -151.37531 39196 ft 488 kts 42°
2026-05-04 20:10 28.21760 -151.31966 39197 ft 488 kts 42°
2026-05-04 20:11 28.26466 -151.26412 39200 ft 488 kts 42°
2026-05-04 20:11 28.31141 -151.20880 39196 ft 488 kts 42°
2026-05-04 20:12 28.35828 -151.15315 39204 ft 488 kts 42°
2026-05-04 20:12 28.40526 -151.09730 39196 ft 488 kts 42°
2026-05-04 20:13 28.45212 -151.04154 39202 ft 488 kts 42°
2026-05-04 20:13 28.49907 -150.98567 39197 ft 488 kts 42°
2026-05-04 20:14 28.54567 -150.93007 39203 ft 488 kts 42°
2026-05-04 20:14 28.59246 -150.87408 39194 ft 488 kts 42°
2026-05-04 20:15 28.63933 -150.81803 39205 ft 488 kts 42°
2026-05-04 20:15 28.68623 -150.76190 39201 ft 489 kts 42°
2026-05-04 20:16 28.73308 -150.70574 39199 ft 489 kts 42°
2026-05-04 20:16 28.77986 -150.64952 39198 ft 489 kts 43°
2026-05-04 20:17 28.82635 -150.59352 39200 ft 489 kts 42°
2026-05-04 20:17 28.87311 -150.53715 39206 ft 489 kts 42°
2026-05-04 20:18 28.91987 -150.48086 39204 ft 489 kts 42°
2026-05-04 20:18 28.96657 -150.42445 39199 ft 488 kts 42°
2026-05-04 20:19 29.01318 -150.36798 39206 ft 488 kts 42°
2026-05-04 20:19 29.05972 -150.31151 39206 ft 488 kts 43°
2026-05-04 20:20 29.10636 -150.25495 39196 ft 488 kts 43°
2026-05-04 20:20 29.15300 -150.19841 39194 ft 488 kts 43°
2026-05-04 20:21 29.19959 -150.14176 39206 ft 489 kts 43°
2026-05-04 20:21 29.26943 -150.05670 39201 ft 488 kts 43°
2026-05-04 20:22 29.31586 -150.00002 39205 ft 488 kts 43°
2026-05-04 20:22 29.36239 -149.94318 39200 ft 489 kts 43°
2026-05-04 20:23 29.40871 -149.88632 39206 ft 488 kts 43°
2026-05-04 20:23 29.45523 -149.82930 39196 ft 488 kts 43°
2026-05-04 20:24 29.50137 -149.77275 39198 ft 489 kts 43°
2026-05-04 20:24 29.54785 -149.71562 39199 ft 489 kts 43°
2026-05-04 20:25 29.59424 -149.65849 39201 ft 489 kts 43°
2026-05-04 20:25 29.64056 -149.60139 39102 ft 487 kts 43°
2026-05-04 20:26 29.68669 -149.54453 39103 ft 486 kts 43°
2026-05-04 20:26 29.73283 -149.48747 39105 ft 487 kts 43°
2026-05-04 20:27 29.77895 -149.43034 39108 ft 487 kts 43°
2026-05-04 20:27 29.82506 -149.37312 39109 ft 487 kts 43°
2026-05-04 20:28 29.87087 -149.31620 39106 ft 487 kts 43°
2026-05-04 20:28 29.91695 -149.25886 39106 ft 488 kts 43°
2026-05-04 20:29 29.96312 -149.20136 39105 ft 488 kts 43°
2026-05-04 20:29 30.00924 -149.14383 39105 ft 488 kts 43°
2026-05-04 20:30 30.05538 -149.08621 39101 ft 489 kts 43°
2026-05-04 20:30 30.10126 -149.02890 39100 ft 489 kts 43°
2026-05-04 20:31 30.14743 -148.97114 39101 ft 490 kts 43°
2026-05-04 20:31 30.19369 -148.91324 39102 ft 490 kts 43°
2026-05-04 20:32 30.23991 -148.85524 39106 ft 490 kts 43°
2026-05-04 20:32 30.28610 -148.79715 39106 ft 491 kts 43°
2026-05-04 20:33 30.33231 -148.73893 39102 ft 491 kts 43°
2026-05-04 20:33 30.37852 -148.68068 39102 ft 491 kts 43°
2026-05-04 20:34 30.42476 -148.62237 39101 ft 491 kts 43°
2026-05-04 20:34 30.47099 -148.56404 39099 ft 491 kts 43°
2026-05-04 20:35 30.51711 -148.50558 39098 ft 491 kts 44°
2026-05-04 20:35 30.56295 -148.44742 39098 ft 491 kts 44°
2026-05-04 20:36 30.60899 -148.38896 39094 ft 491 kts 44°
2026-05-04 20:36 30.65509 -148.33035 39097 ft 491 kts 44°
2026-05-04 20:37 30.70110 -148.27168 39095 ft 491 kts 44°
2026-05-04 20:37 30.74716 -148.21288 39097 ft 492 kts 44°
2026-05-04 20:38 30.79314 -148.15408 39097 ft 492 kts 44°
2026-05-04 20:38 30.83925 -148.09518 39095 ft 492 kts 44°
2026-05-04 20:39 30.88518 -148.03620 39088 ft 492 kts 44°
2026-05-04 20:39 30.93119 -147.97713 39088 ft 492 kts 44°
2026-05-04 20:40 30.97702 -147.91836 39088 ft 493 kts 44°
2026-05-04 20:40 31.02303 -147.85906 39088 ft 493 kts 44°
2026-05-04 20:41 31.06897 -147.79982 39090 ft 493 kts 44°
2026-05-04 20:41 31.11493 -147.74041 39087 ft 493 kts 44°
2026-05-04 20:42 31.16092 -147.68098 39085 ft 493 kts 44°
2026-05-04 20:42 31.19904 -147.63161 39084 ft 493 kts 44°
2026-05-04 20:43 31.24492 -147.57201 39080 ft 493 kts 44°
2026-05-04 20:43 31.29081 -147.51243 39076 ft 492 kts 44°
2026-05-04 20:44 31.33665 -147.45279 39078 ft 493 kts 44°
2026-05-04 20:44 31.38248 -147.39300 39083 ft 494 kts 44°
2026-05-04 20:45 31.42834 -147.33308 39077 ft 494 kts 44°
2026-05-04 20:45 31.47393 -147.27361 39077 ft 494 kts 44°
2026-05-04 20:46 31.52003 -147.21325 39078 ft 494 kts 44°
2026-05-04 20:46 31.56545 -147.15340 39082 ft 494 kts 44°
2026-05-04 20:47 31.61114 -147.09332 39076 ft 494 kts 44°
2026-05-04 20:47 31.65692 -147.03317 39076 ft 494 kts 44°
2026-05-04 20:48 31.70277 -146.97281 39078 ft 494 kts 44°
2026-05-04 20:48 31.74844 -146.91249 39081 ft 494 kts 44°
2026-05-04 20:49 31.79417 -146.85209 39081 ft 494 kts 44°
2026-05-04 20:49 31.83985 -146.79158 39081 ft 494 kts 45°
2026-05-04 20:50 31.88526 -146.73117 39082 ft 493 kts 45°
2026-05-04 20:50 31.93082 -146.67063 39082 ft 493 kts 44°
2026-05-04 20:51 31.97630 -146.61015 39078 ft 493 kts 45°
2026-05-04 20:51 32.02173 -146.54964 39071 ft 493 kts 45°
2026-05-04 20:52 32.06711 -146.48907 39067 ft 492 kts 45°
2026-05-04 20:52 32.11215 -146.42889 39067 ft 492 kts 45°
2026-05-04 20:53 32.15737 -146.36826 39065 ft 492 kts 45°
2026-05-04 20:53 32.20257 -146.30748 39065 ft 492 kts 45°
2026-05-04 20:54 32.24771 -146.24680 39064 ft 492 kts 45°
2026-05-04 20:54 32.29290 -146.18604 39066 ft 492 kts 45°
2026-05-04 20:55 32.33800 -146.12518 39067 ft 492 kts 45°
2026-05-04 20:55 32.38283 -146.06465 39065 ft 492 kts 45°
2026-05-04 20:56 32.42789 -146.00368 39060 ft 492 kts 45°
2026-05-04 20:56 32.47288 -145.94267 39062 ft 492 kts 45°
2026-05-04 20:57 32.51790 -145.88164 39064 ft 492 kts 45°
2026-05-04 20:57 32.56290 -145.82051 39067 ft 492 kts 45°
2026-05-04 20:58 32.60795 -145.75911 39065 ft 493 kts 45°
2026-05-04 20:58 32.65302 -145.69768 39059 ft 493 kts 46°
2026-05-04 20:59 32.69779 -145.63650 39057 ft 494 kts 46°
2026-05-04 20:59 32.74288 -145.57480 39058 ft 495 kts 46°
2026-05-04 21:00 32.78799 -145.51295 39054 ft 495 kts 46°
2026-05-04 21:00 32.83303 -145.45103 39051 ft 495 kts 46°
2026-05-04 21:01 32.87809 -145.38902 39049 ft 496 kts 46°
2026-05-04 21:01 32.92321 -145.32672 39047 ft 496 kts 46°
2026-05-04 21:02 32.96831 -145.26454 39047 ft 496 kts 46°
2026-05-04 21:02 33.01332 -145.20234 39046 ft 497 kts 46°
2026-05-04 21:03 33.05847 -145.13983 39049 ft 497 kts 46°
2026-05-04 21:03 33.10356 -145.07725 39050 ft 498 kts 46°
2026-05-04 21:04 33.14836 -145.01491 39050 ft 498 kts 46°
2026-05-04 21:04 33.19348 -144.95211 39050 ft 498 kts 47°
2026-05-04 21:05 33.23858 -144.88930 39049 ft 498 kts 47°
2026-05-04 21:05 33.28353 -144.82645 39049 ft 498 kts 47°
2026-05-04 21:06 33.32855 -144.76336 39049 ft 498 kts 47°
2026-05-04 21:06 33.37349 -144.70042 39050 ft 498 kts 47°
2026-05-04 21:07 33.41856 -144.63718 39049 ft 499 kts 47°
2026-05-04 21:07 33.46352 -144.57392 39049 ft 499 kts 47°
2026-05-04 21:08 33.50855 -144.51058 39049 ft 499 kts 47°
2026-05-04 21:08 33.55350 -144.44701 39050 ft 499 kts 48°
2026-05-04 21:09 33.59835 -144.38347 39046 ft 499 kts 48°
2026-05-04 21:09 33.64312 -144.31995 39041 ft 499 kts 48°
2026-05-04 21:10 33.68763 -144.25682 39040 ft 498 kts 46°
2026-05-04 21:10 33.73242 -144.19339 39037 ft 497 kts 46°
2026-05-04 21:11 33.77701 -144.12992 39036 ft 496 kts 46°
2026-05-04 21:11 33.82145 -144.06635 39034 ft 496 kts 46°
2026-05-04 21:12 33.86592 -144.00273 39033 ft 496 kts 46°
2026-05-04 21:12 33.91036 -143.93918 39034 ft 496 kts 46°
2026-05-04 21:13 33.95482 -143.87550 39035 ft 496 kts 46°
2026-05-04 21:13 33.99921 -143.81174 39035 ft 496 kts 46°
2026-05-04 21:14 34.04351 -143.74787 39034 ft 496 kts 47°
2026-05-04 21:14 34.08772 -143.68394 39034 ft 496 kts 47°
2026-05-04 21:15 34.13173 -143.62043 39035 ft 496 kts 47°
2026-05-04 21:15 34.17605 -143.55643 39034 ft 496 kts 47°
2026-05-04 21:16 34.22031 -143.49239 39037 ft 496 kts 47°
2026-05-04 21:16 34.26442 -143.42825 39035 ft 496 kts 47°
2026-05-04 21:17 34.30849 -143.36401 39035 ft 496 kts 47°
2026-05-04 21:17 34.35248 -143.29980 39036 ft 496 kts 47°
2026-05-04 21:18 34.39652 -143.23546 39035 ft 496 kts 47°
2026-05-04 21:18 34.44028 -143.17143 39035 ft 495 kts 48°
2026-05-04 21:19 34.48416 -143.10701 39034 ft 495 kts 48°
2026-05-04 21:19 34.52804 -143.04270 39034 ft 495 kts 48°
2026-05-04 21:20 34.57185 -142.97827 39032 ft 494 kts 48°
2026-05-04 21:20 34.61545 -142.91387 39032 ft 494 kts 49°
2026-05-04 21:21 34.65876 -142.84985 39029 ft 493 kts 49°
2026-05-04 21:21 34.70243 -142.78543 39029 ft 493 kts 49°
2026-05-04 21:22 34.74601 -142.72096 39038 ft 493 kts 49°
2026-05-04 21:22 34.78949 -142.65655 39073 ft 493 kts 49°
2026-05-04 21:23 34.83283 -142.59189 39091 ft 493 kts 49°
2026-05-04 21:23 34.87609 -142.52724 39099 ft 493 kts 49°
2026-05-04 21:24 34.91947 -142.46258 39104 ft 493 kts 49°
2026-05-04 21:24 34.96290 -142.39779 39100 ft 493 kts 49°
2026-05-04 21:25 35.00614 -142.33300 39098 ft 492 kts 49°
2026-05-04 21:25 35.04897 -142.26857 39098 ft 492 kts 50°
2026-05-04 21:26 35.09190 -142.20380 39098 ft 492 kts 50°
2026-05-04 21:26 35.13514 -142.13862 39098 ft 492 kts 50°
2026-05-04 21:27 35.17824 -142.07355 39097 ft 492 kts 50°
2026-05-04 21:27 35.22122 -142.00862 39106 ft 491 kts 50°
2026-05-04 21:28 35.26410 -141.94353 39115 ft 490 kts 50°
2026-05-04 21:28 35.30681 -141.87844 39121 ft 490 kts 50°
2026-05-04 21:29 35.34946 -141.81344 39123 ft 489 kts 50°
2026-05-04 21:29 35.39182 -141.74893 39120 ft 489 kts 50°
2026-05-04 21:30 35.43443 -141.68401 39119 ft 488 kts 50°
2026-05-04 21:30 35.47684 -141.61905 39117 ft 488 kts 50°
2026-05-04 21:31 35.54052 -141.52135 39118 ft 488 kts 50°
2026-05-04 21:32 35.58291 -141.45621 39117 ft 488 kts 50°
2026-05-04 21:32 35.61803 -141.40204 39118 ft 488 kts 50°
2026-05-04 21:33 35.66032 -141.33670 39118 ft 487 kts 50°
2026-05-04 21:33 35.70251 -141.27133 39120 ft 487 kts 50°
2026-05-04 21:34 35.74461 -141.20610 39120 ft 487 kts 50°
2026-05-04 21:34 35.78684 -141.14068 39121 ft 487 kts 50°
2026-05-04 21:35 35.82882 -141.07554 39120 ft 486 kts 50°
2026-05-04 21:35 35.87080 -141.01006 39122 ft 486 kts 50°
2026-05-04 21:36 35.91234 -140.94508 39123 ft 485 kts 50°
2026-05-04 21:36 35.95410 -140.87968 39122 ft 484 kts 50°
2026-05-04 21:37 35.99573 -140.81446 39122 ft 484 kts 50°
2026-05-04 21:37 36.03735 -140.74924 39123 ft 482 kts 50°
2026-05-04 21:38 36.07876 -140.68414 39123 ft 481 kts 50°
2026-05-04 21:38 36.12001 -140.61901 39123 ft 480 kts 50°
2026-05-04 21:39 36.16120 -140.55394 39123 ft 479 kts 50°
2026-05-04 21:39 36.20216 -140.48913 39121 ft 478 kts 50°
2026-05-04 21:40 36.24279 -140.42467 39119 ft 478 kts 50°
2026-05-04 21:40 36.28361 -140.35979 39113 ft 477 kts 50°
2026-05-04 21:41 36.32439 -140.29499 39111 ft 477 kts 50°
2026-05-04 21:41 36.36516 -140.23002 39110 ft 476 kts 50°
2026-05-04 21:42 36.40579 -140.16512 39109 ft 476 kts 50°
2026-05-04 21:42 36.44635 -140.10033 39106 ft 476 kts 50°
2026-05-04 21:43 36.48691 -140.03534 39107 ft 475 kts 50°
2026-05-04 21:43 36.52739 -139.97033 39108 ft 475 kts 50°
2026-05-04 21:44 36.56770 -139.90538 39111 ft 474 kts 50°
2026-05-04 21:44 36.60786 -139.84062 39114 ft 473 kts 50°
2026-05-04 21:45 36.64803 -139.77574 39113 ft 472 kts 50°
2026-05-04 21:45 36.68803 -139.71092 39111 ft 471 kts 50°
2026-05-04 21:46 36.72798 -139.64620 39114 ft 470 kts 50°
2026-05-04 21:46 36.76743 -139.58205 39121 ft 469 kts 50°
2026-05-04 21:47 36.80716 -139.51731 39125 ft 469 kts 50°
2026-05-04 21:47 36.84679 -139.45270 39122 ft 468 kts 50°
2026-05-04 21:48 36.88617 -139.38823 39121 ft 467 kts 50°
2026-05-04 21:48 36.92549 -139.32389 39119 ft 466 kts 50°
2026-05-04 21:49 36.96482 -139.25935 39120 ft 465 kts 50°
2026-05-04 21:49 37.00395 -139.19505 39121 ft 464 kts 50°
2026-05-04 21:50 37.04302 -139.13079 39126 ft 463 kts 50°
2026-05-04 21:50 37.08186 -139.06669 39129 ft 462 kts 50°
2026-05-04 21:51 37.12059 -139.00257 39127 ft 461 kts 50°
2026-05-04 21:51 37.15906 -138.93891 39130 ft 461 kts 49°
2026-05-04 21:52 37.19772 -138.87481 39129 ft 460 kts 50°
2026-05-04 21:52 37.23623 -138.81078 39131 ft 459 kts 49°
2026-05-04 21:53 37.27463 -138.74683 39131 ft 457 kts 50°
2026-05-04 21:53 37.31283 -138.68303 39128 ft 456 kts 50°
2026-05-04 21:54 37.35097 -138.61905 39127 ft 456 kts 50°
2026-05-04 21:54 37.38900 -138.55530 39129 ft 455 kts 49°
2026-05-04 21:55 37.42677 -138.49213 39127 ft 454 kts 50°
2026-05-04 21:55 37.46452 -138.42864 39128 ft 452 kts 50°
2026-05-04 21:56 37.50213 -138.36529 39134 ft 451 kts 49°
2026-05-04 21:56 37.53963 -138.30194 39129 ft 450 kts 50°
2026-05-04 21:57 37.57707 -138.23862 39134 ft 449 kts 49°
2026-05-04 21:57 37.61434 -138.17544 39127 ft 448 kts 49°
2026-05-04 21:58 37.65142 -138.11250 39130 ft 447 kts 49°
2026-05-04 21:58 37.68849 -138.04943 39125 ft 446 kts 49°
2026-05-04 21:59 37.72541 -137.98641 39129 ft 446 kts 50°
2026-05-04 21:59 37.76228 -137.92342 39124 ft 445 kts 49°
2026-05-04 22:00 37.79886 -137.86101 39126 ft 445 kts 49°
2026-05-04 22:00 37.83565 -137.79807 39124 ft 445 kts 50°
2026-05-04 22:01 37.87235 -137.73490 39124 ft 444 kts 50°
2026-05-04 22:01 37.90888 -137.67192 39122 ft 444 kts 50°
2026-05-04 22:02 37.94549 -137.60873 39123 ft 444 kts 50°
2026-05-04 22:02 37.98211 -137.54554 39122 ft 445 kts 50°
2026-05-04 22:03 38.01866 -137.48234 39133 ft 445 kts 50°
2026-05-04 22:03 38.05514 -137.41898 39133 ft 444 kts 50°
2026-05-04 22:04 38.09133 -137.35604 39130 ft 444 kts 50°
2026-05-04 22:04 38.12781 -137.29272 39130 ft 443 kts 50°
2026-05-04 22:05 38.16406 -137.22948 39134 ft 442 kts 50°
2026-05-04 22:05 38.20006 -137.16639 39128 ft 441 kts 51°
2026-05-04 22:06 38.23613 -137.10329 39123 ft 440 kts 51°
2026-05-04 22:06 38.27180 -137.04070 39130 ft 439 kts 51°
2026-05-04 22:07 38.30767 -136.97775 39133 ft 439 kts 51°
2026-05-04 22:07 38.34354 -136.91466 39122 ft 439 kts 51°
2026-05-04 22:08 38.37925 -136.85167 39119 ft 438 kts 51°
2026-05-04 22:08 38.41489 -136.78875 39120 ft 438 kts 51°
2026-05-04 22:09 38.45044 -136.72579 39129 ft 437 kts 51°
2026-05-04 22:09 38.48593 -136.66268 39126 ft 437 kts 51°
2026-05-04 22:10 38.52134 -136.59962 39127 ft 437 kts 51°
2026-05-04 22:10 38.55671 -136.53661 39127 ft 436 kts 51°
2026-05-04 22:11 38.59214 -136.47350 39129 ft 436 kts 51°
2026-05-04 22:11 38.62713 -136.41088 39129 ft 436 kts 51°
2026-05-04 22:12 38.66228 -136.34773 39129 ft 436 kts 51°
2026-05-04 22:12 38.69748 -136.28458 39127 ft 436 kts 51°
2026-05-04 22:13 38.73264 -136.22144 39131 ft 436 kts 52°
2026-05-04 22:13 38.76777 -136.15808 39130 ft 435 kts 52°
2026-05-04 22:14 38.80277 -136.09482 39132 ft 435 kts 52°
2026-05-04 22:14 38.83780 -136.03141 39122 ft 435 kts 52°
2026-05-04 22:15 38.87269 -135.96817 39122 ft 434 kts 52°
2026-05-04 22:15 38.90751 -135.90496 39123 ft 433 kts 52°
2026-05-04 22:16 38.94223 -135.84178 39120 ft 432 kts 52°
2026-05-04 22:16 38.97668 -135.77899 39116 ft 431 kts 52°
2026-05-04 22:17 39.01111 -135.71602 39116 ft 430 kts 53°
2026-05-04 22:17 39.04551 -135.65299 39120 ft 430 kts 53°
2026-05-04 22:18 39.07982 -135.59007 39121 ft 429 kts 53°
2026-05-04 22:18 39.11404 -135.52713 39122 ft 429 kts 53°
2026-05-04 22:19 39.14818 -135.46414 39119 ft 428 kts 53°
2026-05-04 22:19 39.18230 -135.40127 39117 ft 428 kts 53°
2026-05-04 22:20 39.21636 -135.33840 39114 ft 428 kts 53°
2026-05-04 22:20 39.25035 -135.27545 39107 ft 427 kts 53°
2026-05-04 22:21 39.28417 -135.21258 39104 ft 427 kts 53°
2026-05-04 22:21 39.31782 -135.14991 39102 ft 427 kts 53°
2026-05-04 22:22 39.35170 -135.08685 39103 ft 427 kts 54°
2026-05-04 22:22 39.38554 -135.02380 39101 ft 427 kts 54°
2026-05-04 22:23 39.41377 -134.97098 39102 ft 427 kts 54°
2026-05-04 22:23 39.44751 -134.90775 39102 ft 427 kts 54°
2026-05-04 22:24 39.48102 -134.84495 39103 ft 427 kts 54°
2026-05-04 22:24 39.51476 -134.78157 39102 ft 427 kts 54°
2026-05-04 22:25 39.54835 -134.71832 39104 ft 426 kts 54°
2026-05-04 22:25 39.58198 -134.65486 39103 ft 426 kts 54°
2026-05-04 22:26 39.61550 -134.59147 39103 ft 426 kts 55°
2026-05-04 22:26 39.64895 -134.52807 39103 ft 426 kts 54°
2026-05-04 22:27 39.68239 -134.46468 39103 ft 425 kts 54°
2026-05-04 22:27 39.71560 -134.40166 39104 ft 425 kts 55°
2026-05-04 22:28 39.74889 -134.33830 39103 ft 424 kts 55°
2026-05-04 22:28 39.78212 -134.27476 39113 ft 424 kts 55°
2026-05-04 22:29 39.81524 -134.21137 39119 ft 424 kts 55°
2026-05-04 22:29 39.84845 -134.14790 39120 ft 423 kts 55°
2026-05-04 22:30 39.88142 -134.08446 39116 ft 423 kts 56°
2026-05-04 22:30 39.91435 -134.02103 39112 ft 423 kts 56°
2026-05-04 22:31 39.94724 -133.95760 39109 ft 423 kts 56°
2026-05-04 22:31 39.98019 -133.89406 39111 ft 423 kts 56°
2026-05-04 22:32 40.01281 -133.83083 39111 ft 423 kts 56°
2026-05-04 22:32 40.04559 -133.76717 39110 ft 423 kts 56°
2026-05-04 22:33 40.07835 -133.70341 39111 ft 422 kts 56°
2026-05-04 22:33 40.11103 -133.63970 39111 ft 422 kts 56°
2026-05-04 22:34 40.14370 -133.57600 39110 ft 421 kts 56°
2026-05-04 22:34 40.17628 -133.51218 39110 ft 421 kts 56°
2026-05-04 22:35 40.20868 -133.44860 39110 ft 421 kts 56°
2026-05-04 22:35 40.24122 -133.38494 39110 ft 420 kts 56°
2026-05-04 22:36 40.27340 -133.32172 39111 ft 420 kts 56°
2026-05-04 22:36 40.30569 -133.25802 39111 ft 419 kts 56°
2026-05-04 22:37 40.33782 -133.19450 39111 ft 418 kts 57°
2026-05-04 22:37 40.36991 -133.13084 39110 ft 418 kts 57°
2026-05-04 22:38 40.40195 -133.06732 39110 ft 417 kts 57°
2026-05-04 22:38 40.43391 -133.00381 39106 ft 417 kts 57°
2026-05-04 22:39 40.46582 -132.94029 39103 ft 417 kts 57°
2026-05-04 22:39 40.49767 -132.87669 39101 ft 416 kts 57°
2026-05-04 22:40 40.52941 -132.81316 39100 ft 416 kts 57°
2026-05-04 22:40 40.56109 -132.74970 39099 ft 415 kts 57°
2026-05-04 22:41 40.59282 -132.68617 39099 ft 415 kts 57°
2026-05-04 22:41 40.62437 -132.62274 39098 ft 414 kts 57°
2026-05-04 22:42 40.65570 -132.55955 39098 ft 414 kts 57°
2026-05-04 22:42 40.68713 -132.49589 39098 ft 414 kts 57°
2026-05-04 22:43 40.71847 -132.43232 39098 ft 414 kts 57°
2026-05-04 22:43 40.74981 -132.36861 39099 ft 414 kts 57°
2026-05-04 22:44 40.78116 -132.30498 39099 ft 413 kts 57°
2026-05-04 22:44 40.81245 -132.24132 39100 ft 413 kts 57°
2026-05-04 22:45 40.84369 -132.17758 39100 ft 413 kts 57°
2026-05-04 22:45 40.89006 -132.08236 39100 ft 412 kts 58°
2026-05-04 22:46 40.92111 -132.01876 39100 ft 411 kts 58°
2026-05-04 22:46 40.95211 -131.95525 39099 ft 411 kts 58°
2026-05-04 22:47 40.98299 -131.89168 39099 ft 410 kts 58°
2026-05-04 22:47 41.01372 -131.82801 39099 ft 410 kts 58°
2026-05-04 22:48 41.04443 -131.76442 39099 ft 409 kts 58°
2026-05-04 22:48 41.07503 -131.70088 39100 ft 409 kts 58°
2026-05-04 22:49 41.10560 -131.63744 39098 ft 408 kts 58°
2026-05-04 22:49 41.13592 -131.57438 39098 ft 408 kts 58°
2026-05-04 22:50 41.16629 -131.51091 39099 ft 408 kts 58°
2026-05-04 22:50 41.19659 -131.44732 39099 ft 407 kts 58°
2026-05-04 22:51 41.22702 -131.38384 39097 ft 407 kts 58°
2026-05-04 22:51 41.25735 -131.32038 39097 ft 406 kts 58°
2026-05-04 22:52 41.28752 -131.25681 39098 ft 405 kts 58°
2026-05-04 22:52 41.31763 -131.19334 39096 ft 406 kts 58°
2026-05-04 22:53 41.34754 -131.13041 39096 ft 405 kts 58°
2026-05-04 22:53 41.37756 -131.06673 39098 ft 406 kts 59°
2026-05-04 22:54 41.40751 -131.00301 39100 ft 405 kts 59°
2026-05-04 22:54 41.43745 -130.93935 39098 ft 405 kts 59°
2026-05-04 22:55 41.46741 -130.87583 39098 ft 404 kts 59°
2026-05-04 22:55 41.49701 -130.81262 39097 ft 404 kts 59°
2026-05-04 22:56 41.52673 -130.74896 39097 ft 404 kts 59°
2026-05-04 22:56 41.55633 -130.68543 39098 ft 403 kts 59°
2026-05-04 22:57 41.58590 -130.62183 39099 ft 402 kts 59°
2026-05-04 22:57 41.61537 -130.55836 39098 ft 401 kts 59°
2026-05-04 22:58 41.64475 -130.49500 39097 ft 401 kts 59°
2026-05-04 22:58 41.67407 -130.43168 39097 ft 400 kts 59°
2026-05-04 22:59 41.70328 -130.36838 39095 ft 399 kts 59°
2026-05-04 22:59 41.73241 -130.30511 39091 ft 399 kts 59°
2026-05-04 23:00 41.76148 -130.24188 39090 ft 398 kts 59°
2026-05-04 23:00 41.79049 -130.17871 39088 ft 398 kts 59°
2026-05-04 23:01 41.81942 -130.11559 39086 ft 397 kts 60°
2026-05-04 23:01 41.84812 -130.05276 39088 ft 397 kts 60°
2026-05-04 23:02 41.87693 -129.98957 39087 ft 397 kts 60°
2026-05-04 23:02 41.90571 -129.92622 39087 ft 397 kts 60°
2026-05-04 23:03 41.93445 -129.86286 39090 ft 397 kts 60°
2026-05-04 23:03 41.96317 -129.79951 39092 ft 396 kts 60°
2026-05-04 23:04 41.99154 -129.73674 39092 ft 396 kts 60°
2026-05-04 23:04 42.02018 -129.67334 39094 ft 397 kts 60°
2026-05-04 23:05 42.04872 -129.60982 39096 ft 397 kts 60°
2026-05-04 23:05 42.07732 -129.54610 39095 ft 397 kts 60°
2026-05-04 23:06 42.10580 -129.48247 39094 ft 397 kts 60°
2026-05-04 23:06 42.13427 -129.41873 39094 ft 397 kts 60°
2026-05-04 23:07 42.16255 -129.35538 39094 ft 397 kts 60°
2026-05-04 23:07 42.19104 -129.29158 39094 ft 397 kts 60°
2026-05-04 23:08 42.21942 -129.22782 39094 ft 397 kts 60°
2026-05-04 23:08 42.24780 -129.16387 39095 ft 397 kts 60°
2026-05-04 23:09 42.27614 -129.09984 39094 ft 397 kts 60°
2026-05-04 23:09 42.30421 -129.03605 39095 ft 398 kts 60°
2026-05-04 23:10 42.33245 -128.97192 39096 ft 397 kts 60°
2026-05-04 23:10 42.36081 -128.90769 39098 ft 397 kts 60°
2026-05-04 23:11 42.38905 -128.84337 39098 ft 397 kts 60°
2026-05-04 23:11 42.41714 -128.77903 39099 ft 397 kts 60°
2026-05-04 23:12 42.44527 -128.71459 39099 ft 398 kts 59°
2026-05-04 23:12 42.47345 -128.65010 39101 ft 397 kts 60°
2026-05-04 23:13 42.50121 -128.58628 39101 ft 397 kts 60°
2026-05-04 23:13 42.52908 -128.52185 39095 ft 396 kts 60°
2026-05-04 23:14 42.55704 -128.45727 39112 ft 394 kts 60°
2026-05-04 23:14 42.57100 -128.42499 38895 ft 397 kts 60°
2026-05-04 23:14 42.58020 -128.40368 38800 ft 391 kts 60°
2026-05-04 23:15 42.59383 -128.37210 38972 ft 387 kts 60°
2026-05-04 23:15 42.60744 -128.34049 39052 ft 390 kts 60°
2026-05-04 23:15 42.63496 -128.27655 39065 ft 393 kts 60°
2026-05-04 23:16 42.66260 -128.21221 39071 ft 395 kts 60°
2026-05-04 23:16 42.69024 -128.14769 39081 ft 395 kts 60°
2026-05-04 23:17 42.71791 -128.08299 39082 ft 396 kts 60°
2026-05-04 23:17 42.74552 -128.01830 39087 ft 396 kts 60°
2026-05-04 23:18 42.77300 -127.95374 39088 ft 396 kts 60°
2026-05-04 23:18 42.80061 -127.88878 39089 ft 396 kts 60°
2026-05-04 23:19 42.82806 -127.82386 39087 ft 395 kts 60°
2026-05-04 23:19 42.85546 -127.75897 39088 ft 395 kts 59°
2026-05-04 23:20 42.88285 -127.69412 39085 ft 395 kts 60°
2026-05-04 23:20 42.91025 -127.62914 39083 ft 395 kts 60°
2026-05-04 23:21 42.93759 -127.56399 39082 ft 395 kts 60°
2026-05-04 23:21 42.96486 -127.49872 39083 ft 395 kts 60°
2026-05-04 23:22 42.99218 -127.43333 39085 ft 396 kts 60°
2026-05-04 23:22 43.01953 -127.36796 39087 ft 396 kts 59°
2026-05-04 23:23 43.04670 -127.30283 39088 ft 396 kts 60°
2026-05-04 23:23 43.07384 -127.23729 39086 ft 396 kts 59°
2026-05-04 23:24 43.10100 -127.17161 39084 ft 397 kts 59°
2026-05-04 23:24 43.12820 -127.10592 39085 ft 397 kts 59°
2026-05-04 23:25 43.15546 -127.04006 39086 ft 397 kts 60°
2026-05-04 23:25 43.18253 -126.97405 39084 ft 397 kts 60°
2026-05-04 23:26 43.20961 -126.90793 39086 ft 398 kts 60°
2026-05-04 23:26 43.23679 -126.84176 39087 ft 398 kts 59°
2026-05-04 23:27 43.26385 -126.77560 39088 ft 398 kts 59°
2026-05-04 23:27 43.29070 -126.70973 39088 ft 398 kts 60°
2026-05-04 23:28 43.32025 -126.64572 39088 ft 397 kts 54°
2026-05-04 23:28 43.35185 -126.58347 39087 ft 397 kts 54°
2026-05-04 23:29 43.38338 -126.52106 39089 ft 397 kts 54°
2026-05-04 23:29 43.41487 -126.45850 39088 ft 397 kts 54°
2026-05-04 23:30 43.44637 -126.39594 39088 ft 397 kts 54°
2026-05-04 23:30 43.47764 -126.33392 39086 ft 397 kts 54°
2026-05-04 23:31 43.50899 -126.27140 39085 ft 397 kts 54°
2026-05-04 23:31 43.54020 -126.20911 39058 ft 387 kts 54°
2026-05-04 23:32 43.57041 -126.14847 39063 ft 382 kts 54°
2026-05-04 23:32 43.60044 -126.08820 39063 ft 381 kts 54°
2026-05-04 23:33 43.63043 -126.02793 39063 ft 381 kts 54°
2026-05-04 23:33 43.66040 -125.96760 39063 ft 381 kts 54°
2026-05-04 23:34 43.69038 -125.90709 39066 ft 382 kts 54°
2026-05-04 23:34 43.72033 -125.84655 39074 ft 382 kts 54°
2026-05-04 23:35 43.75022 -125.78582 39075 ft 382 kts 54°
2026-05-04 23:35 43.77993 -125.72530 39074 ft 383 kts 54°
2026-05-04 23:36 43.80994 -125.66427 39077 ft 383 kts 54°
2026-05-04 23:36 43.83993 -125.60326 39082 ft 383 kts 54°
2026-05-04 23:37 43.86984 -125.54198 39086 ft 384 kts 54°
2026-05-04 23:37 43.89976 -125.48058 39081 ft 384 kts 54°
2026-05-04 23:38 43.92958 -125.41932 39083 ft 383 kts 54°
2026-05-04 23:38 43.95948 -125.35788 39084 ft 383 kts 54°
2026-05-04 23:39 43.98900 -125.29693 39084 ft 383 kts 54°
2026-05-04 23:39 44.01869 -125.23533 39081 ft 384 kts 54°
2026-05-04 23:40 44.04848 -125.17372 39079 ft 384 kts 54°
2026-05-04 23:40 44.07823 -125.11199 39076 ft 385 kts 54°
2026-05-04 23:41 44.10804 -125.05006 39074 ft 385 kts 54°
2026-05-04 23:41 44.13777 -124.98812 39076 ft 385 kts 54°
2026-05-04 23:42 44.16749 -124.92592 39075 ft 385 kts 54°
2026-05-04 23:42 44.19719 -124.86377 39081 ft 385 kts 54°
2026-05-04 23:43 44.22688 -124.80161 39077 ft 385 kts 54°
2026-05-04 23:43 44.25650 -124.73940 39081 ft 385 kts 54°
2026-05-04 23:44 44.28587 -124.67744 39079 ft 385 kts 54°
2026-05-04 23:44 44.31539 -124.61505 39080 ft 385 kts 54°
2026-05-04 23:45 44.34484 -124.55278 39076 ft 384 kts 54°
2026-05-04 23:45 44.37433 -124.49042 39080 ft 384 kts 54°
2026-05-04 23:46 44.40375 -124.42787 39082 ft 384 kts 54°
2026-05-04 23:46 44.43306 -124.36539 39083 ft 384 kts 54°
2026-05-04 23:47 44.46220 -124.30325 39087 ft 384 kts 54°
2026-05-04 23:47 44.49149 -124.24069 39087 ft 384 kts 54°
2026-05-04 23:48 44.52068 -124.17812 39087 ft 383 kts 54°
2026-05-04 23:48 44.54974 -124.11571 38854 ft 382 kts 54°
2026-05-04 23:49 44.56411 -124.08478 38551 ft 379 kts 54°
2026-05-04 23:49 44.57972 -124.05541 38153 ft 373 kts 46°
2026-05-04 23:49 44.59807 -124.02976 38037 ft 369 kts 43°
2026-05-04 23:49 44.61660 -124.00466 37936 ft 375 kts 44°
2026-05-04 23:50 44.63558 -123.97869 36963 ft 386 kts 44°
2026-05-04 23:50 44.65460 -123.95249 36165 ft 383 kts 44°
2026-05-04 23:50 44.67372 -123.92614 35491 ft 384 kts 44°
2026-05-04 23:50 44.69293 -123.89965 34752 ft 391 kts 44°
2026-05-04 23:51 44.71218 -123.87307 34122 ft 386 kts 44°
2026-05-04 23:51 44.73107 -123.84701 33494 ft 376 kts 44°
2026-05-04 23:51 44.74960 -123.82145 32869 ft 373 kts 44°
2026-05-04 23:51 44.76823 -123.79575 32249 ft 376 kts 44°
2026-05-04 23:52 44.78716 -123.76965 31616 ft 378 kts 44°
2026-05-04 23:52 44.80602 -123.74366 30988 ft 381 kts 44°
2026-05-04 23:52 44.82506 -123.71740 30358 ft 385 kts 44°
2026-05-04 23:52 44.84413 -123.69103 29721 ft 382 kts 44°
2026-05-04 23:53 44.86284 -123.66508 29093 ft 373 kts 44°
2026-05-04 23:53 44.88106 -123.63982 28463 ft 362 kts 44°
2026-05-04 23:53 44.89881 -123.61519 27840 ft 354 kts 44°
2026-05-04 23:53 44.91623 -123.59097 27213 ft 350 kts 44°
2026-05-04 23:54 44.93350 -123.56698 26586 ft 347 kts 44°
2026-05-04 23:54 44.95064 -123.54312 25960 ft 344 kts 44°
2026-05-04 23:54 44.96765 -123.51943 25268 ft 343 kts 44°
2026-05-04 23:54 44.98459 -123.49581 24569 ft 340 kts 44°
2026-05-04 23:55 45.00124 -123.47263 23957 ft 341 kts 44°
2026-05-04 23:55 45.01807 -123.44914 23338 ft 341 kts 44°
2026-05-04 23:55 45.05155 -123.40231 22078 ft 334 kts 44°
2026-05-04 23:56 45.06803 -123.37925 21447 ft 329 kts 44°
2026-05-04 23:56 45.08423 -123.35654 20818 ft 326 kts 44°
2026-05-04 23:56 45.10025 -123.33407 20193 ft 323 kts 44°
2026-05-04 23:56 45.11621 -123.31169 19568 ft 324 kts 44°
2026-05-04 23:57 45.13233 -123.28902 18940 ft 328 kts 44°
2026-05-04 23:57 45.14853 -123.26619 18328 ft 331 kts 44°
2026-05-04 23:57 45.16499 -123.24305 17711 ft 334 kts 44°
2026-05-04 23:57 45.18152 -123.21979 17082 ft 337 kts 44°
2026-05-04 23:58 45.19824 -123.19634 16453 ft 340 kts 44°
2026-05-04 23:58 45.21508 -123.17268 15820 ft 342 kts 44°
2026-05-04 23:58 45.23207 -123.14883 15188 ft 344 kts 44°
2026-05-04 23:58 45.24909 -123.12487 14568 ft 346 kts 44°
2026-05-04 23:59 45.26617 -123.10081 13940 ft 347 kts 44°
2026-05-04 23:59 45.28335 -123.07664 13315 ft 348 kts 44°
2026-05-04 23:59 45.30054 -123.05243 12685 ft 348 kts 44°
2026-05-04 23:59 45.31770 -123.02818 12054 ft 348 kts 44°
2026-05-05 00:00 45.33484 -123.00394 11420 ft 344 kts 44°
2026-05-05 00:00 45.34042 -122.99584 11213 ft 336 kts 46°
2026-05-05 00:00 45.36035 -122.95159 10215 ft 308 kts 67°
2026-05-05 00:00 45.36751 -122.92427 9932 ft 284 kts 68°
2026-05-05 00:01 45.37419 -122.89902 9811 ft 265 kts 68°
2026-05-05 00:01 45.38063 -122.87495 9610 ft 262 kts 68°
2026-05-05 00:01 45.38712 -122.85082 9426 ft 261 kts 68°
2026-05-05 00:01 45.39364 -122.82657 9168 ft 260 kts 68°
2026-05-05 00:02 45.40001 -122.80277 8912 ft 259 kts 68°
2026-05-05 00:02 45.40651 -122.77842 8315 ft 264 kts 68°
2026-05-05 00:02 45.41295 -122.75426 7922 ft 259 kts 68°
2026-05-05 00:02 45.41906 -122.73118 7781 ft 238 kts 68°
2026-05-05 00:03 45.42461 -122.71010 7541 ft 218 kts 68°
2026-05-05 00:03 45.42988 -122.69013 6990 ft 215 kts 68°
2026-05-05 00:03 45.43512 -122.67040 6450 ft 210 kts 68°
2026-05-05 00:03 45.44031 -122.65086 5773 ft 212 kts 68°
2026-05-05 00:04 45.44550 -122.63118 5198 ft 211 kts 69°
2026-05-05 00:04 45.45057 -122.61195 4623 ft 206 kts 69°
2026-05-05 00:04 45.45390 -122.59929 4244 ft 204 kts 69°
2026-05-05 00:04 45.46052 -122.57424 3474 ft 201 kts 69°
2026-05-05 00:05 45.46536 -122.55594 3127 ft 190 kts 69°
2026-05-05 00:05 45.46836 -122.54455 3043 ft 184 kts 69°
2026-05-05 00:05 45.47440 -122.52159 2893 ft 189 kts 69°
2026-05-05 00:05 45.47752 -122.50970 2830 ft 188 kts 69°
2026-05-05 00:06 45.48209 -122.49229 2900 ft 190 kts 69°
2026-05-05 00:06 45.48673 -122.47458 2908 ft 190 kts 70°
2026-05-05 00:06 45.49148 -122.45719 2910 ft 190 kts 64°
2026-05-05 00:06 45.50038 -122.44380 2910 ft 189 kts 29°
2026-05-05 00:07 45.51297 -122.43981 2903 ft 186 kts 355°
2026-05-05 00:07 45.52504 -122.44623 2532 ft 182 kts 320°
2026-05-05 00:07 45.53217 -122.46003 2099 ft 168 kts 296°
2026-05-05 00:07 45.53754 -122.47383 1802 ft 151 kts 296°
2026-05-05 00:08 45.54250 -122.48656 1588 ft 143 kts 296°
2026-05-05 00:08 45.54731 -122.49889 1395 ft 141 kts 295°
2026-05-05 00:08 45.55208 -122.51109 1206 ft 140 kts 296°
2026-05-05 00:08 45.55682 -122.52323 1017 ft 141 kts 297°
2026-05-05 00:09 45.56152 -122.53527 837 ft 138 kts 300°
2026-05-05 00:09 45.56615 -122.54710 659 ft 136 kts 301°
2026-05-05 00:09 45.57077 -122.55892 474 ft 136 kts 301°
2026-05-05 00:09 45.57535 -122.57065 301 ft 135 kts 300°
2026-05-05 00:10 45.57989 -122.58230 113 ft 134 kts 300°
2026-05-05 00:10 45.58426 -122.59356 39 ft 119 kts 300°
2026-05-05 00:10 45.58753 -122.60198 33 ft 64 kts 300°
2026-05-05 00:10 45.58867 -122.60446 30 ft 19 kts 329°
2026-05-05 00:11 45.58971 -122.60426 32 ft 14 kts 41°
2026-05-05 00:11 45.59010 -122.60311 34 ft 14 kts 98°
2026-05-05 00:11 45.58989 -122.60238 32 ft 6 kts 115°
2026-05-05 00:11 45.58986 -122.60181 32 ft 6 kts 63°
2026-05-05 00:12 45.59032 -122.60135 30 ft 13 kts 25°
2026-05-05 00:12 45.59115 -122.60073 30 ft 11 kts 44°
2026-05-05 00:12 45.59140 -122.59973 29 ft 9 kts 91°
2026-05-05 00:12 45.59156 -122.59889 28 ft 11 kts 37°
2026-05-05 00:13 45.59269 -122.59794 28 ft 24 kts 30°
2026-05-05 00:13 45.59307 -122.59645 28 ft 9 kts 110°
2026-05-05 00:13 45.59270 -122.59618 30 ft 5 kts 201°
2026-05-05 00:13 45.59243 -122.59633 30 ft 3 kts 201°
2026-05-05 00:14 45.59232 -122.59646 30 ft 1 kts 233°
2026-05-05 00:14 45.59241 -122.59666 29 ft 6 kts 316°
2026-05-05 00:14 45.59253 -122.59728 29 ft 8 kts 243°
2026-05-05 00:14 45.59218 -122.59779 28 ft 7 kts 225°
2026-05-05 00:15 45.59181 -122.59833 28 ft 8 kts 225°
2026-05-05 00:15 45.59144 -122.59885 29 ft 7 kts 225°
2026-05-05 00:15 45.59120 -122.59930 30 ft 5 kts 245°
2026-05-05 00:15 45.59110 -122.59965 30 ft 3 kts 247°
2026-05-05 00:16 45.59104 -122.59985 30 ft 2 kts 247°
2026-05-05 00:16 45.59082 -122.60050 28 ft 14 kts 244°
2026-05-05 00:16 45.59030 -122.60127 30 ft 9 kts 203°
2026-05-05 00:16 45.58981 -122.60115 31 ft 6 kts 131°
2026-05-05 00:17 45.58981 -122.60070 32 ft 4 kts 71°
2026-05-05 00:17 45.58984 -122.60033 32 ft 3 kts 84°
2026-05-05 00:17 45.58986 -122.60010 31 ft 1 kts 85°
2026-05-05 00:17 45.58986 -122.60005 32 ft 0 kts 85°
2026-05-05 00:18 45.58985 -122.59998 30 ft 0 kts 85°